This demonstration page uses our WeatherBlox Daily Observations layout. Learn more.

Left ArrowRight Arrow

38.20091, -84.87328

Hourly Observations for May 6, 2020

Temp ( °F °C ) Dew Point ( °F °C ) Humidity (%) Winds ( mph kmh ) Pressure ( in mb ) Visibility ( mi km ) Precip ( " mm )
12:53 am 00:53 Cloudy 47 8.3 43 6.1 86 86 VRB 3 6 29.93 1014 10 16 0.00 0.00
1:28 am 01:28 Cloudy 47 8.3 43 6.1 86 86 WNW 3 6 29.95 1014 10 16 0.00 0.00
1:53 am 01:53 Cloudy 47 8.3 43 6.1 86 86 W 5 7 29.93 1014 10 16 0.00 0.00
2:53 am 02:53 Mostly Cloudy 46 7.8 42 5.6 86 86 WNW 6 9 29.91 1013 10 16 0.00 0.00
3:18 am 03:18 Cloudy 46 7.8 42 5.6 86 86 NW 5 7 29.93 1013 10 16 0.00 0.00
3:53 am 03:53 Cloudy 46 7.8 43 6.1 89 89 W 3 6 29.91 1013 10 16 0.00 0.00
4:19 am 04:19 Cloudy 46 7.8 42 5.6 86 86 NNW 6 9 29.94 1014 10 16 0.00 0.00
4:31 am 04:31 Cloudy 47 8.3 43 6.1 86 86 NNW 7 11 29.94 1014 10 16 0.00 0.00
4:40 am 04:40 Cloudy 47 8.3 42 5.6 83 83 N 6 9 29.94 1014 10 16 0.00 0.00
4:53 am 04:53 Cloudy 46 7.8 41 5 83 83 N 6 9 29.92 1013 10 16 0.00 0.00
5:05 am 05:05 Cloudy 46 7.8 39 3.9 77 77 NNW 8 13 29.94 1014 10 16 0.00 0.00
5:09 am 05:09 Cloudy 46 7.8 39 3.9 77 77 NNW 7 11 29.95 1014 10 16 0.00 0.00
5:53 am 05:53 Cloudy 44 6.7 38 3.3 79 79 N 6 9 29.93 1014 10 16 0.00 0.00
6:39 am 06:39 Cloudy 44 6.7 38 3.3 79 79 NNW 5 7 29.95 1014 10 16 0.00 0.00
6:53 am 06:53 Cloudy 43 6.1 39 3.9 86 86 NNW 7 11 29.94 1014 10 16 0.00 0.00
7:32 am 07:32 Cloudy 43 6.1 37 2.8 80 80 NNW 9 15 29.97 1015 10 16 0.00 0.00
7:53 am 07:53 Cloudy 43 6.1 37 2.8 80 80 N 9 15 29.96 1015 10 16 0.00 0.00
8:53 am 08:53 Cloudy 44 6.7 37 2.8 76 76 N 10 17 29.97 1015 10 16 0.00 0.00
9:04 am 09:04 Cloudy 44 6.7 37 2.8 76 76 N 10 17 30.00 1016 10 16 0.00 0.00
9:53 am 09:53 Cloudy 44 6.7 36 2.2 73 73 N 9 15 30.00 1016 10 16 0.00 0.00
10:16 am 10:16 Cloudy 46 7.8 37 2.8 71 71 N 8 13 30.02 1016 10 16 0.00 0.00
10:53 am 10:53 Cloudy 47 8.3 35 1.7 63 63 NNW 9 15 30.01 1016 10 16 0.00 0.00
11:53 am 11:53 Cloudy 49 9.4 35 1.7 59 59 NW 13 20 30.04 1017 10 16 0.00 0.00
12:53 pm 12:53 Cloudy 53 11.7 35 1.7 51 51 NNW 9 15 30.04 1017 10 16 0.00 0.00
1:53 pm 13:53 Mostly Cloudy 55 12.8 35 1.7 47 47 VRB 5 7 30.02 1017 10 16 0.00 0.00
2:53 pm 14:53 Cloudy 57 13.9 36 2.2 45 45 NW 12 19 30.03 1017 10 16 0.00 0.00
3:53 pm 15:53 Mostly Cloudy 58 14.4 31 -0.6 36 36 NW 12 19 30.02 1017 10 16 0.00 0.00
4:53 pm 16:53 Mostly Sunny 60 15.6 30 -1.1 32 32 NNW 12 19 30.01 1016 10 16 0.00 0.00
5:53 pm 17:53 Sunny 59 15 24 -4.4 26 26 WNW 9 15 30.02 1017 10 16 0.00 0.00
6:53 pm 18:53 Sunny 59 15 25 -3.9 27 27 NNW 15 24 30.02 1017 10 16 0.00 0.00
7:53 pm 19:53 Sunny 57 13.9 25 -3.9 29 29 NNW 13 20 30.03 1017 10 16 0.00 0.00
8:53 pm 20:53 Clear 53 11.7 25 -3.9 34 34 NW 5 7 30.05 1018 10 16 0.00 0.00
9:53 pm 21:53 Clear 45 7.2 32 0 61 61 Calm 30.06 1018 10 16 0.00 0.00
10:53 pm 22:53 Clear 43 6.1 33 0.6 68 68 NW 3 6 30.07 1018 10 16 0.00 0.00
11:53 pm 23:53 Clear 41 5 34 1.1 76 76 Calm 30.06 1018 10 16 0.00 0.00

Powered by AerisWeather